[[{"header":{"parameterUnit":"m.s-1","parameterCategory":1,"la1":30.2992,"la2":30.254,"lo1":-89.0895,"lo2":-89.0443,"dy":0.0025,"dx":0.0025,"nx":19,"ny":19,"refTime":"2026-05-12T09:00:00:Z","depth":0,"parameterNumber":2,"parameterNumberName":"U-component_of_WINDS"},"data":[0,0,0,1.2054,1.2056,1.2164,1.2165,1.2311,1.2312,0,0,0,0,0,0,0,0,0,0,0,1.2022,1.2023,1.2054,1.2056,1.2164,1.2165,1.231,1.2312,0,0,0,0,0,0,0,0,0,0,0,1.2022,1.2023,1.2024,1.2057,1.2164,1.2165,1.231,1.2227,0,0,0,0,0,0,0,0,0,0,1.2121,1.2091,1.2023,1.2024,1.2057,1.2164,1.2165,1.2223,1.2232,1.2264,0,1.2288,0,1.2302,1.2322,1.2322,0,0,0,1.2057,1.2083,1.2112,1.2024,1.2058,1.2164,1.2116,1.2228,1.2238,1.2276,1.229,1.2296,1.2305,1.2323,1.2323,1.2498,1.2499,0,0,1.2051,1.2043,1.2104,1.2119,1.2098,1.2112,1.2119,1.2234,1.2251,1.2291,1.2299,1.2307,1.2324,1.2325,1.2497,1.2498,0,0,0,1.2034,1.2039,1.2064,1.2113,1.2131,1.2115,1.2123,1.2245,1.2254,1.2301,1.2309,1.2325,1.2326,1.2496,1.2498,1.2529,0,0,0,1.203,1.2028,1.2061,1.2058,1.2129,1.2189,1.2132,1.2246,1.226,1.2308,1.2325,1.2328,1.2496,1.2497,1.2526,1.2545,0,0,0,1.2015,1.2027,1.2042,1.2057,1.2103,1.2187,1.2203,1.2249,1.2265,1.2322,1.2328,1.2495,1.2497,1.2523,1.2541,1.2591,0,0,0,1.1998,1.2067,1.2042,1.2124,1.2102,1.2204,1.2202,1.2279,1.2332,1.2325,1.2496,1.2498,1.2523,1.2539,1.2588,1.2631,1.2648,0,0,1.2081,1.2077,1.2126,1.2107,1.2211,1.2188,1.23,1.2357,1.2371,1.2456,1.2461,1.2527,1.2541,1.259,1.2742,1.2755,0,0,0,1.215,1.2185,1.2215,1.2264,1.2309,1.235,1.2391,1.2414,1.2486,1.2412,1.2557,1.2566,1.2595,1.2617,1.2628,1.2655,1.2506,1.2506,1.2506,1.2257,1.2271,1.2354,1.2382,1.243,1.2473,1.2516,1.2554,1.2553,1.2588,1.2614,1.2704,1.2728,1.2736,1.2764,1.2636,1.2637,1.2637,1.2637,1.2382,1.2435,1.2435,1.2515,1.2532,1.2601,1.2648,1.2646,1.2716,1.2685,1.2711,1.2676,1.275,1.2776,1.2639,1.2639,1.2639,1.2638,1.2638,1.2454,1.2482,1.2507,1.2582,1.264,1.2667,1.2735,1.2747,1.276,1.2786,1.2817,1.2816,1.282,1.28,1.28,1.28,1.2801,1.2801,1.2801,1.2519,1.2546,1.26,1.2655,1.2691,1.2739,1.2787,1.2823,1.2868,1.2872,1.2873,1.2872,1.2754,1.2725,1.2806,1.2805,1.2805,1.2804,1.2804,1.2643,1.2617,1.27,1.2735,1.2804,1.2863,1.2879,1.2953,1.2986,1.302,1.3015,1.2924,1.2922,1.2913,1.289,1.3009,1.3009,1.3009,1.3009,1.2705,1.2704,1.2793,1.285,1.2907,1.2931,1.303,1.307,1.3107,1.313,1.3114,1.3084,1.3074,1.3078,1.3066,1.3044,1.32,1.32,1.32,1.2783,1.2789,1.2868,1.2902,1.2958,1.3007,1.3102,1.3171,1.3209,1.3208,1.3148,1.314,1.3091,1.3074,1.3071,1.3051,1.3012,0,0]},{"header":{"parameterUnit":"m.s-1","parameterCategory":1,"la1":30.2992,"la2":30.254,"lo1":-89.0895,"lo2":-89.0443,"dy":0.0025,"dx":0.0025,"nx":19,"ny":19,"refTime":"2026-05-12T09:00:00:Z","depth":0,"parameterNumber":3,"parameterNumberName":"V-component_of_WINDS"},"data":[0,0,0,-0.716,-0.7159,-0.7162,-0.7162,-0.7156,-0.7156,0,0,0,0,0,0,0,0,0,0,0,-0.7154,-0.7154,-0.716,-0.7159,-0.7162,-0.7162,-0.7156,-0.7156,0,0,0,0,0,0,0,0,0,0,0,-0.7154,-0.7154,-0.7154,-0.7159,-0.7162,-0.7162,-0.7156,-0.7157,0,0,0,0,0,0,0,0,0,0,-0.7156,-0.7147,-0.7154,-0.7154,-0.7159,-0.7162,-0.7162,-0.7158,-0.7157,-0.7151,0,-0.7146,0,-0.7151,-0.7155,-0.7155,0,0,0,-0.7162,-0.7148,-0.7152,-0.7154,-0.7159,-0.7162,-0.7162,-0.7158,-0.7157,-0.7151,-0.7146,-0.7146,-0.7151,-0.7155,-0.7155,-0.7113,-0.7112,0,0,-0.7162,-0.7152,-0.7153,-0.7152,-0.7153,-0.7162,-0.7162,-0.7157,-0.7151,-0.7146,-0.7146,-0.7151,-0.7155,-0.7155,-0.7113,-0.7112,0,0,0,-0.716,-0.7152,-0.7157,-0.7152,-0.7153,-0.7162,-0.7162,-0.7151,-0.7154,-0.7146,-0.7151,-0.7155,-0.7155,-0.7113,-0.7113,-0.7085,0,0,0,-0.716,-0.7151,-0.7157,-0.7151,-0.7153,-0.7153,-0.7156,-0.7154,-0.7154,-0.7151,-0.7155,-0.7155,-0.7114,-0.7113,-0.7087,-0.7073,0,0,0,-0.7156,-0.715,-0.7149,-0.715,-0.7151,-0.7153,-0.7156,-0.7154,-0.7157,-0.7155,-0.7155,-0.7114,-0.7113,-0.7088,-0.7075,-0.7057,0,0,0,-0.7148,-0.7126,-0.7149,-0.7125,-0.7151,-0.7137,-0.7156,-0.7146,-0.7141,-0.7155,-0.7114,-0.7113,-0.7089,-0.7077,-0.7058,-0.7038,-0.703,0,0,-0.7114,-0.7121,-0.7108,-0.7129,-0.7108,-0.7137,-0.7111,-0.7117,-0.7126,-0.7116,-0.7115,-0.7086,-0.7076,-0.7057,-0.6988,-0.6981,0,0,0,-0.7094,-0.7084,-0.7081,-0.7076,-0.708,-0.7081,-0.7092,-0.7093,-0.7086,-0.7119,-0.7076,-0.707,-0.706,-0.705,-0.7044,-0.7035,-0.7109,-0.7109,-0.7109,-0.7031,-0.7043,-0.7021,-0.7034,-0.7029,-0.7039,-0.7036,-0.704,-0.7054,-0.7044,-0.704,-0.6997,-0.6985,-0.6981,-0.6971,-0.7032,-0.7032,-0.7032,-0.7032,-0.698,-0.6967,-0.6986,-0.6972,-0.6985,-0.6972,-0.6981,-0.6991,-0.698,-0.7001,-0.6992,-0.7012,-0.6973,-0.6964,-0.703,-0.703,-0.7031,-0.7031,-0.7031,-0.6938,-0.6934,-0.6937,-0.693,-0.6923,-0.6936,-0.6924,-0.6937,-0.6949,-0.694,-0.6936,-0.6936,-0.6936,-0.6938,-0.6938,-0.6938,-0.6937,-0.6937,-0.6937,-0.6893,-0.6897,-0.6886,-0.6887,-0.6884,-0.6882,-0.6892,-0.6889,-0.6889,-0.6899,-0.6899,-0.6912,-0.6968,-0.698,-0.6935,-0.6935,-0.6936,-0.6936,-0.6936,-0.6833,-0.6848,-0.6831,-0.6828,-0.6829,-0.682,-0.6837,-0.683,-0.6829,-0.6822,-0.6838,-0.6878,-0.6886,-0.689,-0.69,-0.6837,-0.6837,-0.6837,-0.6837,-0.6796,-0.6802,-0.6785,-0.678,-0.6776,-0.6789,-0.6766,-0.6772,-0.678,-0.678,-0.6792,-0.6807,-0.6811,-0.6816,-0.6823,-0.6832,-0.6753,-0.6753,-0.6753,-0.6758,-0.6764,-0.6743,-0.6752,-0.6754,-0.6753,-0.6732,-0.6723,-0.6736,-0.6749,-0.678,-0.6783,-0.6808,-0.6816,-0.6828,-0.6838,-0.6855,0,0]}]]